This is the latest recevied weather packets stored in our database for station/object IU1DOF-3. If no packets are shown the sender has not sent any weather packets the latest 10 day(s).
| Time | Temp. | Humidity | Pressure | Rain* | Wind** | Luminosity | Snow |
|---|---|---|---|---|---|---|---|
| 1777858589 | 10° C | 88% | 1015.4 hPa | 0 mm | - | - | - |
| 1777857981 | 10.56° C | 84% | 1015.6 hPa | 0 mm | - | - | - |
| 1777857358 | 10.56° C | 86% | 1015.6 hPa | 0 mm | - | - | - |
| 1777856741 | 10° C | 89% | 1015.5 hPa | 0 mm | - | - | - |
| 1777856126 | 10° C | 88% | 1015.9 hPa | 0 mm | - | - | - |
| 1777855502 | 10.56° C | 85% | 1015.6 hPa | 0 mm | - | - | - |
| 1777854893 | 10° C | 87% | 1016.1 hPa | 0 mm | - | - | - |
| 1777854281 | 10° C | 88% | 1015.9 hPa | 0 mm | - | - | - |
| 1777853662 | 10° C | 85% | 1016.2 hPa | 0 mm | - | - | - |
| 1777853038 | 10° C | 86% | 1016.1 hPa | 0 mm | - | - | - |
| 1777852421 | 10.56° C | 85% | 1016.2 hPa | 0 mm | - | - | - |
| 1777851807 | 10° C | 84% | 1016.3 hPa | 0 mm | - | - | - |
| 1777851182 | 10.56° C | 84% | 1016.3 hPa | 0 mm | - | - | - |
| 1777850561 | 10.56° C | 84% | 1016.4 hPa | 0 mm | - | - | - |
| 1777849949 | 11.11° C | 84% | 1016.4 hPa | 0 mm | - | - | - |
| 1777849327 | 10.56° C | 84% | 1016 hPa | 0 mm | - | - | - |
| 1777848717 | 11.11° C | 85% | 1016.6 hPa | 0 mm | - | - | - |
| 1777848100 | 11.11° C | 83% | 1016.7 hPa | 0 mm | - | - | - |
| 1777847485 | 11.11° C | 83% | 1016.3 hPa | 0 mm | - | - | - |
| 1777846861 | 11.11° C | 83% | 1016.2 hPa | 0 mm | - | - | - |
| 1777846237 | 11.11° C | 84% | 1016.5 hPa | 0 mm | - | - | - |
| 1777845615 | 11.67° C | 82% | 1016.5 hPa | 0 mm | - | - | - |
| 1777844990 | 11.11° C | 82% | 1016.5 hPa | 0 mm | - | - | - |
| 1777844380 | 11.67° C | 82% | 1016.4 hPa | 0 mm | - | - | - |
| 1777843758 | 11.67° C | 82% | 1016.4 hPa | 0 mm | - | - | - |
* Rain latest hour (hover to see other rain measurements)
** Current wind speed in m/s (hover to see current wind gust speed)